User: anonymous   Login
Location: North Smoke Tower Site
(30.5430°N, 82.3390°W)
Time: 17:57:35
(UTC-05:00)
Language:

Cosmos 1980 Rocket - Orbit

View from above orbital plane
View from above orbital plane
View from above satellite
View from above satellite

Ground track
Ground track

The orbit data is extracted from the following two-line orbital elements,

1 19650U 88102B   15056.25953412 -.00000068  00000-0 -10354-4 0  9991
2 19650 071.0020 347.4615 0013571 016.1628 145.7055 14.15702518356694
Epoch (UTC): 25 February 2015 06:13:43
Eccentricity: 0.0013571
inclination: 71.0020°
perigee height: 830 km
apogee height: 850 km
right ascension of ascending node: 347.4615°
argument of perigee: 16.1628°
revolutions per day: 14.15702518
mean anomaly at epoch: 145.7055°
orbit number at epoch: 35669

The dashed part of the orbit path shows where the satellite is in the earth's shadow,  

DLR